Find Starlink 11705

NORAD ID: 63758 Int'l Des: 2025-089 Owner: SPXS Country: US Constellation: starlink operational
LEOCIRCULAR

当前视图

正在加载3D地球...

About Starlink 11705

Starlink 11705 (NORAD 63758) is a starlink constellation satellite (v2 mini d2c) launched Apr 29, 2025 by SPXS of US. It operates in LEO, CIRCULAR orbit with a mass of 960.00 kg.

关于 Starlink 11705

正在加载描述...

即将过境

Passes for default location (London). Set your location on the main map for personalized predictions.

高度历史

Loading altitude history...

两行轨道根数

1 63758U 25089H 26171.31298378 .00145337 00000-0 11155-2 0 9999
2 63758 43.0014 33.8289 0001439 275.5007 84.5696 15.70859387 66226
Epoch: Jun 20, 2026 • Age: 44 hours

当前状态

高度 357.1 km
速度 7.70 km/s
星下点 -12.13°S, 100.23°W
发射日期 Apr 29, 2025
运行时间 1.1 years
类型 internet

技术详情

分类 Payload
质量 960.00 kg
干质量 910.00 kg
总质量 960.00 kg
长度 0.30 m
直径 4.10 m
跨度 29.00 m
形状 Box + pan
制造商 SPXS
平台类型 Starlink V2MD
阶段状态 In Orbit
所有者/国家 SPXS/US

Most Searched